This demonstration page uses our WeatherBlox Daily Observations layout. Learn more.

Left ArrowRight Arrow

Hourly Observations for June 11, 2021

Temp ( °F °C ) Dew Point ( °F °C ) Humidity (%) Winds ( mph kmh ) Pressure ( in mb ) Visibility ( mi km ) Precip ( " mm )
12:53 am 00:53 Partly Cloudy 66 18.9 29 -1.7 25 25 S 6 9 30.01 1016 10 16 0.00 0.00
1:53 am 01:53 Cloudy 66 18.9 31 -0.6 27 27 Calm 30.00 1016 10 16 0.00 0.00
2:53 am 02:53 Mostly Clear 64 17.8 32 0 30 30 N 3 6 29.99 1016 10 16 0.00 0.00
3:53 am 03:53 Cloudy 63 17.2 33 0.6 33 33 W 5 7 30.00 1016 10 16 0.00 0.00
4:53 am 04:53 Cloudy 64 17.8 37 2.8 37 37 SSE 8 13 29.99 1016 10 16 0.00 0.00
5:53 am 05:53 Cloudy 63 17.2 41 5 45 45 SSW 8 13 30.00 1016 10 16 0.00 0.00
6:53 am 06:53 Cloudy 63 17.2 41 5 45 45 S 13 20 30.01 1016 10 16 0.00 0.00
7:53 am 07:53 Cloudy 64 17.8 41 5 43 43 SSW 8 13 30.03 1017 10 16 0.00 0.00
8:53 am 08:53 Sunny 64 17.8 40 4.4 41 41 SSE 12 19 30.03 1017 10 16 0.00 0.00
9:53 am 09:53 Sunny 66 18.9 41 5 40 40 S 6 9 30.03 1017 10 16 0.00 0.00
10:53 am 10:53 Sunny 70 21.1 41 5 35 35 undefined N/A 30.02 1017 10 16 0.00 0.00
11:53 am 11:53 Mostly Cloudy 70 21.1 41 5 35 35 Calm 30.01 1016 10 16 0.00 0.00
12:53 pm 12:53 Mostly Cloudy 77 25 35 1.7 22 22 SSW 13 20 29.98 1015 10 16 0.00 0.00
1:53 pm 13:53 Cloudy 77 25 31 -0.6 18 18 S 10 17 29.97 1015 10 16 0.00 0.00
2:53 pm 14:53 Mostly Cloudy 79 26.1 28 -2.2 15 15 S 14 22 29.96 1014 10 16 0.00 0.00
3:53 pm 15:53 Sunny 78 25.6 29 -1.7 16 16 S 10 17 29.94 1014 10 16 0.00 0.00
4:53 pm 16:53 Sunny 79 26.1 32 0 18 18 SSW 12 19 29.93 1014 10 16 0.00 0.00
5:53 pm 17:53 Mostly Sunny 77 25 35 1.7 22 22 SSE 10 17 29.91 1013 10 16 0.00 0.00
6:53 pm 18:53 Cloudy 76 24.4 34 1.1 22 22 SSE 5 7 29.91 1013 10 16 0.00 0.00
7:53 pm 19:53 Cloudy 75 23.9 37 2.8 25 25 NW 5 7 29.94 1014 10 16 0.00 0.00
8:53 pm 20:53 Cloudy 72 22.2 46 7.8 40 40 Calm 29.96 1015 10 16 0.00 0.00
9:53 pm 21:53 Cloudy with Light Rain 66 18.9 47 8.3 50 50 NE 6 9 29.99 1016 10 16 0.00 0.00
10:53 pm 22:53 Mostly Cloudy 64 17.8 49 9.4 58 58 NNE 5 7 30.01 1016 10 16 0.00 0.00
11:53 pm 23:53 Cloudy 64 17.8 49 9.4 58 58 N 7 11 29.99 1016 10 16 0.00 0.00

Powered by AerisWeather